Tracking 30918 objects as of 2-Jul-2025
HD Live streaming from Space Station
objects crossing your sky now

TITAN 3C TRANSTAGE DEB

Track TITAN 3C TRANSTAGE DEB now!
10-day predictions


NORAD ID: 3978
Int'l Code: 1965-082SE
Perigee: 645.1 km
Apogee: 693.2 km
Inclination: 32.6 °
Period: 98.0 minutes
Semi major axis: 7040 km
RCS: 0.0084 m2 (small)
Launch date: October 15, 1965
Source: United States (US)
Launch site: AIR FORCE EASTERN TEST RANGE (AFETR)

Note: This is SATELLITE DEBRIS
Your satellite tracking list
FREGAT DEB
Track 1 satellite(s)




NASA's NSSDC Master Catalog

Two Line Element Set (TLE):
1 03978U 65082SE  25182.12316544  .00000439  00000-0  66870-4 0  9999
2 03978  32.5624 203.5529 0034146  42.0919 318.2350 14.69702599395214
Source of the keplerian elements: AFSPC